sat.trackr.live / text

‹ back to catalog

STARLINK-5936

NORAD 56011 · 2023-042AB

PAYLOAD ACTIVE UNKNOWN

§ Identity

Operator
Country
US
Launch date
2023-03-24
Launch site
AFETR
Launch vehicle
Mass (kg)
RCS (m²)

Purposes: comms

External: N2YO · Heavens-Above · Gunter

§ Orbital elements

Epoch: 2026-09-20T15:36:34.203168Z

Period
94.27 min
Inclination
43.0059°
Eccentricity
0.0001510
Mean motion
15.27576801 rev/d
Perigee alt
482.0 km
Apogee alt
484.1 km
Semi-major
6,861.2 km
B*
4.9859e-7
RAAN
24.0745°
Arg perigee
284.9571°
Mean anomaly
75.1113°
Rev number
19,285

§ Raw data

STARLINK-59361 56011U 23042AB  26263.65039587 -.00000249  00000+0  49859-6 0  99922 56011  43.0059  24.0745 0001510 284.9571  75.1113 15.27576801192856

JSON: /api/v1/satellites/56011 · /tle

For live sub-satellite position, see the globe view (requires WebGL).

§ Visibility from observer

Set your observer location to see the next 7 days of passes ≥ 10°. The values pass through the URL so the page stays shareable.

No JS? Fill the form by hand. The geolocation button needs JavaScript.